Stations météo

réclame
Mon MeteoGroup
Storlien-Visjovalen A, Suède (2207): Température de l'air & dewpoint: 15.10.2018 17:00:00 - 21.10.2018 17:00:00 (CEST)Storlien-Visjovalen A, Suède (2207): Vitesse du vent & gusts: 15.10.2018 17:00:00 - 21.10.2018 17:00:00 (CEST)Storlien-Visjovalen A, Suède (2207): Direction du vent: 15.10.2018 17:00:00 - 21.10.2018 17:00:00 (CEST)Storlien-Visjovalen A, Suède (2207): reduced air pressure: 15.10.2018 17:00:00 - 21.10.2018 17:00:00 (CEST)Storlien-Visjovalen A, Suède (2207): visibility: 15.10.2018 17:00:00 - 21.10.2018 17:00:00 (CEST)Storlien-Visjovalen A, Suède (2207): Quantités de précipitations: 15.10.2018 17:00:00 - 21.10.2018 17:00:00 (CEST)
Date & Time tt [°C] td [°C] ff [km/h] ff [knt] fx [km/h] fx [knt] dd ppp [hPa] vv [km] rr [mm]
21.10.2018 17:00:00 - - - - - - - - - -
21.10.2018 16:00:00 4,7 3,5 13 7 35 19 W 1007,1 38 0,8
21.10.2018 15:00:00 4,8 3,5 16 9 36 19 W 1007,2 13 1,0
21.10.2018 14:00:00 5,5 3,8 18 10 36 19 W 1008,0 15 0,4
21.10.2018 13:00:00 6,2 5,3 9 5 21 12 NW 1008,6 17 0,8
21.10.2018 12:00:00 6,7 5,6 8 4 21 12 SSW 1008,5 9 1,0
21.10.2018 11:00:00 6,6 5,5 8 4 21 11 SSW 1009,2 14 0,7
21.10.2018 10:00:00 6,0 4,8 10 5 28 15 SSW 1009,3 13 0,4
21.10.2018 09:00:00 5,7 4,2 16 8 28 15 S 1008,8 13 0,0
21.10.2018 08:00:00 5,8 4,3 13 7 26 14 SSW 1008,9 25 0,0
21.10.2018 07:00:00 5,9 4,4 13 7 34 18 SW 1009,1 42 0,1
21.10.2018 06:00:00 5,8 4,0 13 7 39 21 SW 1010,3 34 0,0
21.10.2018 05:00:00 5,6 4,1 16 9 41 22 SSW 1009,7 28 0,6
21.10.2018 04:00:00 5,8 3,8 22 12 48 26 SSW 1010,3 50 0,1
21.10.2018 03:00:00 5,1 3,6 22 12 48 26 SSW 1010,4 20 0,7
21.10.2018 02:00:00 4,6 2,8 19 10 43 23 SSW 1011,4 26 1,6
21.10.2018 01:00:00 4,4 2,3 20 11 47 26 SSW 1012,2 16 1,6
21.10.2018 00:00:00 4,5 1,7 23 12 47 26 SSW 1013,0 15 0,5
20.10.2018 23:00:00 5,8 -0,3 22 12 46 25 SSW 1014,1 50 0,0
20.10.2018 22:00:00 5,6 -0,5 14 8 30 16 S 1014,9 50 0,0
20.10.2018 21:00:00 5,2 -0,6 11 6 26 14 SSW 1016,1 50 0,0
20.10.2018 20:00:00 3,9 0,1 8 5 19 10 SSE 1017,5 50 0,0
20.10.2018 19:00:00 4,4 0,4 6 3 19 10 SSW 1018,3 50 0,0
20.10.2018 18:00:00 4,8 0,7 8 4 14 8 SSW 1019,2 50 0,0
20.10.2018 17:00:00 5,4 1,3 6 3 13 7 S 1019,5 50 0,0
20.10.2018 16:00:00 6,0 1,3 4 2 15 8 SSW 1019,7 50 0,0
20.10.2018 15:00:00 6,0 1,3 4 2 19 10 WSW 1020,1 50 0,0
20.10.2018 14:00:00 5,5 2,3 5 3 19 10 SW 1020,5 50 0,0
20.10.2018 13:00:00 4,9 2,3 5 3 26 14 WSW 1021,0 28 0,0
20.10.2018 12:00:00 4,5 2,5 8 4 26 14 W 1021,3 32 0,1
20.10.2018 11:00:00 5,0 2,9 11 6 19 10 W 1020,8 50 0,3
20.10.2018 10:00:00 4,2 2,5 8 4 19 11 WSW 1020,3 10 0,0
20.10.2018 09:00:00 3,9 2,4 7 4 19 11 WSW 1019,7 37 0,0
20.10.2018 08:00:00 4,1 2,3 10 5 18 10 W 1019,4 44 0,0
20.10.2018 07:00:00 3,1 1,6 5 3 13 7 SSW 1019,0 13 0,2
20.10.2018 06:00:00 3,5 1,1 3 2 19 11 W 1018,8 28 0,0
20.10.2018 05:00:00 4,0 0,7 3 2 23 12 WSW 1018,1 50 0,0
20.10.2018 04:00:00 4,1 1,0 10 5 25 14 SW 1017,7 45 0,0
20.10.2018 03:00:00 4,4 0,7 13 7 30 16 SSW 1017,3 50 0,0
20.10.2018 02:00:00 4,7 -0,1 11 6 30 16 SSW 1016,7 50 0,0
20.10.2018 01:00:00 4,6 -0,6 14 7 28 15 SSW 1016,7 50 0,0
20.10.2018 00:00:00 4,8 -0,8 13 7 25 13 SSW 1016,6 50 0,0
19.10.2018 23:00:00 5,1 -0,7 10 5 20 11 SSW 1016,6 50 0,0
19.10.2018 22:00:00 2,7 1,4 2 1 8 5 N 1017,6 50 0,0
19.10.2018 21:00:00 2,6 1,3 4 2 8 5 NNW 1017,9 50 0,0
19.10.2018 20:00:00 3,0 1,4 3 2 7 4 W 1017,7 50 0,0
19.10.2018 19:00:00 3,9 1,4 5 3 11 6 SE 1018,0 50 0,0
19.10.2018 18:00:00 4,5 1,4 5 3 16 9 ESE 1018,3 50 0,0
19.10.2018 17:00:00 5,1 0,7 6 3 16 9 ESE 1018,5 50 0,0
19.10.2018 16:00:00 5,6 0,8 5 3 17 9 SW 1018,9 50 0,0
19.10.2018 15:00:00 5,5 2,0 7 4 18 10 SSW 1019,7 50 0,0
19.10.2018 14:00:00 5,6 2,4 8 4 18 10 S 1020,2 50 0,0
19.10.2018 13:00:00 5,9 3,1 5 3 22 12 W 1020,2 50 0,0
19.10.2018 12:00:00 5,0 3,3 10 6 22 12 W 1020,6 25 0,0
19.10.2018 11:00:00 4,4 3,2 11 6 20 11 WSW 1020,6 47 0,1
19.10.2018 10:00:00 3,9 3,0 9 5 23 12 SSW 1020,9 5 0,2
19.10.2018 09:00:00 3,8 2,9 8 4 23 12 WSW 1020,6 15 0,0
19.10.2018 08:00:00 3,6 2,9 8 5 23 13 WSW 1020,5 14 0,0
19.10.2018 07:00:00 3,5 2,8 11 6 23 13 W 1020,3 11 0,3
19.10.2018 06:00:00 3,1 2,5 12 7 22 12 WSW 1020,7 4,3 0,3
19.10.2018 05:00:00 2,9 2,0 9 5 42 23 WSW 1021,1 6 0,3
19.10.2018 04:00:00 3,6 1,3 13 7 42 23 W 1020,8 50 0,0
19.10.2018 03:00:00 3,0 1,4 18 10 34 18 W 1020,4 50 0,0
19.10.2018 02:00:00 2,9 1,0 19 11 35 19 W 1020,3 21 0,0
19.10.2018 01:00:00 2,7 1,4 15 8 40 21 WSW 1020,7 21 0,2
19.10.2018 00:00:00 2,7 1,1 13 7 42 23 W 1020,6 11 0,0
18.10.2018 23:00:00 3,0 1,0 16 9 42 23 W 1019,9 26 0,2
18.10.2018 22:00:00 2,9 1,0 16 8 43 23 WSW 1019,7 25 0,0
18.10.2018 21:00:00 2,8 1,0 15 8 43 23 WSW 1019,5 45 0,1
18.10.2018 20:00:00 2,8 1,2 16 9 49 26 W 1019,2 17 0,2
18.10.2018 19:00:00 3,3 0,2 10 5 49 26 WSW 1018,8 50 0,0
18.10.2018 18:00:00 3,6 0,1 20 11 52 28 W 1018,1 27 0,0
18.10.2018 17:00:00 4,0 0,3 22 12 53 29 W 1017,5 22 0,0
18.10.2018 16:00:00 4,5 0,3 26 14 55 30 W 1016,6 50 0,0
18.10.2018 15:00:00 4,0 1,2 28 15 55 30 W 1016,3 15 0,0
18.10.2018 14:00:00 4,5 0,6 24 13 53 29 W 1015,8 41 0,0
18.10.2018 13:00:00 4,5 0,1 25 13 49 26 W 1015,6 35 0,0
18.10.2018 12:00:00 4,1 0,1 21 11 49 26 W 1015,5 44 0,0
18.10.2018 11:00:00 3,6 -0,1 22 12 46 25 WSW 1015,1 40 0,0
18.10.2018 10:00:00 4,5 -0,9 21 11 46 25 W 1014,7 50 0,0
18.10.2018 09:00:00 3,1 -0,2 16 9 46 25 W 1014,8 39 0,1
18.10.2018 08:00:00 3,2 0,6 18 10 40 22 W 1014,1 18 0,0
18.10.2018 07:00:00 3,6 1,6 10 5 15 8 W 1013,4 23 0,1
18.10.2018 06:00:00 4,2 1,7 6 4 15 8 WSW 1013,1 50 0,0
18.10.2018 05:00:00 3,8 2,0 7 4 13 7 SSW 1013,2 50 0,0
18.10.2018 04:00:00 4,1 2,0 9 5 16 9 S 1013,0 50 0,0
18.10.2018 03:00:00 4,5 2,0 9 5 16 9 WSW 1013,2 50 0,0
18.10.2018 02:00:00 4,5 2,4 6 3 15 8 SW 1013,2 50 0,0
18.10.2018 01:00:00 4,0 2,5 5 3 15 8 W 1013,4 50 0,0
18.10.2018 00:00:00 4,1 3,2 6 3 23 12 WNW 1013,2 50 0,0
17.10.2018 23:00:00 4,3 3,3 10 5 23 12 WNW 1012,7 18 0,1
17.10.2018 22:00:00 5,0 4,4 6 3 27 15 NW 1012,3 4,8 0,0
17.10.2018 21:00:00 5,4 4,5 13 7 27 15 NW 1011,9 6 0,0
17.10.2018 20:00:00 6,3 4,5 13 7 30 16 WNW 1011,1 50 0,0
17.10.2018 19:00:00 6,5 4,2 14 8 34 18 W 1010,6 50 0,0
17.10.2018 18:00:00 7,9 3,7 14 8 34 18 SSW 1008,5 50 0,0
17.10.2018 17:00:00 8,8 4,0 16 8 34 18 S 1008,2 50 0,0
17.10.2018 16:00:00 9,9 4,3 16 9 35 19 SSW 1008,1 50 0,0
17.10.2018 15:00:00 10,5 4,2 14 8 41 22 SW 1007,7 50 0,0
17.10.2018 14:00:00 10,7 4,8 6 3 42 23 SW 1007,9 47 0,0
17.10.2018 13:00:00 8,9 4,1 23 13 49 27 SSW 1007,9 50 0,0
17.10.2018 12:00:00 9,0 4,0 21 11 49 27 S 1008,1 50 0,0
17.10.2018 11:00:00 8,0 3,8 19 11 45 24 SSW 1008,2 50 0,0
17.10.2018 10:00:00 7,4 3,8 21 12 53 29 SSW 1008,5 50 0,0
17.10.2018 09:00:00 6,9 3,1 24 13 53 29 SSW 1008,8 50 0,0
17.10.2018 08:00:00 6,7 2,8 25 13 49 26 SSW 1008,4 50 0,0
17.10.2018 07:00:00 6,7 2,4 21 11 49 26 SSW 1008,5 50 0,0
17.10.2018 06:00:00 6,1 2,0 23 12 54 29 SSW 1008,7 50 0,0
17.10.2018 05:00:00 6,0 1,5 21 11 54 29 SSW 1009,1 50 0,0
17.10.2018 04:00:00 6,3 0,8 26 14 45 25 SSW 1009,5 50 0,0
17.10.2018 03:00:00 6,8 -0,4 27 14 45 25 SSW 1009,7 50 0,0
17.10.2018 02:00:00 7,1 -1,8 24 13 44 24 SSW 1009,9 50 0,0
17.10.2018 01:00:00 6,7 -2,0 21 11 39 21 SSW 1010,2 50 0,0
17.10.2018 00:00:00 6,6 -1,8 19 10 29 16 S 1010,9 50 0,0
16.10.2018 23:00:00 6,3 -2,3 12 7 25 13 S 1012,0 50 0,0
16.10.2018 22:00:00 6,6 -3,4 3 2 29 16 SE 1012,5 50 0,0
16.10.2018 21:00:00 7,0 -3,0 10 6 30 16 S 1013,2 50 0,0
16.10.2018 20:00:00 6,6 -4,2 16 9 32 17 SSE 1013,7 50 0,0
16.10.2018 19:00:00 6,8 -4,0 16 9 39 21 S 1014,3 50 0,0
16.10.2018 18:00:00 6,8 -3,2 16 9 39 21 S 1014,9 50 0,0
16.10.2018 17:00:00 8,3 -2,4 17 9 35 19 S 1014,7 50 0,0
16.10.2018 16:00:00 8,6 -0,7 10 5 30 16 SSE 1015,3 50 0,0
16.10.2018 15:00:00 9,4 -0,5 13 7 30 16 SSE 1015,4 50 0,0
16.10.2018 14:00:00 8,4 0,1 10 5 26 14 S 1016,3 50 0,0
16.10.2018 13:00:00 7,7 0,9 11 6 21 11 SSE 1017,1 49 0,0
16.10.2018 12:00:00 6,8 1,1 10 6 21 11 S 1017,7 50 0,0
16.10.2018 11:00:00 5,5 0,7 8 4 18 10 SSW 1018,1 50 0,0
16.10.2018 10:00:00 4,4 0,4 8 5 18 10 SSW 1018,6 50 0,0
16.10.2018 09:00:00 3,4 -0,2 10 5 16 9 SSW 1018,4 50 0,0
16.10.2018 08:00:00 2,6 -0,2 8 5 14 8 SW 1018,1 50 0,0
16.10.2018 07:00:00 1,1 -0,4 5 3 16 9 E 1018,0 50 0,0
16.10.2018 06:00:00 2,4 0,0 8 4 16 9 SW 1017,3 50 0,0
16.10.2018 05:00:00 0,0 -0,4 3 1 7 4 WSW 1017,7 50 0,0
16.10.2018 04:00:00 -0,4 -0,8 3 1 11 6 SSW 1017,7 50 0,0
16.10.2018 03:00:00 -0,9 -1,7 2 1 11 6 WSW 1017,5 50 0,0
16.10.2018 02:00:00 0,1 -0,6 4 2 9 5 SSE 1017,1 50 0,0
16.10.2018 01:00:00 0,8 0,1 2 1 10 5 E 1016,3 50 0,0
16.10.2018 00:00:00 1,5 0,5 2 1 11 6 W 1016,1 50 0,0
15.10.2018 23:00:00 3,5 2,3 5 3 11 6 S 1015,3 50 0,0
15.10.2018 22:00:00 2,9 2,6 4 2 8 4 W 1014,9 50 0,0
15.10.2018 21:00:00 2,7 2,3 0 0 4 2 N 1014,7 50 0,0
15.10.2018 20:00:00 3,2 2,8 0 0 5 3 N 1014,3 50 0,0
15.10.2018 19:00:00 3,2 2,8 3 2 5 3 SSE 1013,9 50 0,0
15.10.2018 18:00:00 3,6 3,0 3 2 6 4 SE 1014,5 5 0,0
15.10.2018 17:00:00 3,7 2,8 0 0 9 5 N 1014,1 9 0,1

tt = Température de l'air
td = dewpoint
ff = Vitesse du vent
fx = gusts
dd = Direction du vent
ppp = reduced air pressure
vv = visibility
rr = Quantités de précipitations

stations d'obs. à proximité